[[{"header":{"parameterUnit":"m.s-1","parameterCategory":1,"la1":30.2991,"la2":30.254,"lo1":-89.0895,"lo2":-89.0444,"dy":0.0017,"dx":0.0017,"nx":28,"ny":28,"refTime":"2025-12-24T03:00:00:Z","depth":0,"parameterNumber":2,"parameterNumberName":"U-component_of_WINDS"},"data":[0,0,0,0,0,0,0,0,0,0,0,0,0,0,0,0,0,0,0,0,0,0,0,0,0,0,0,0,0,0,0,0,0,0,0,0,0,0,0,0,0,0,0,0,0,0,0,0,0,0,0,0,0,0,0,0,0,0,0.3304,0.3304,0,0.3373,0.3374,0.3374,0.3404,0.3404,0.3404,0.3404,0.3474,0.3476,0.3478,0,0,0,0,0,0,0,0,0,0,0,0,0,0.3196,0.3198,0.3304,0.3305,0.3305,0.3373,0.3374,0.3375,0.3404,0.3404,0.3404,0.3404,0.3473,0.3476,0.3478,0,0,0,0,0,0,0,0,0,0,0,0,0,0.3252,0.3198,0.3303,0.3328,0.3331,0.3372,0.3374,0.3375,0.3404,0.3404,0.3404,0.3404,0.3473,0.3475,0.3478,0.35,0,0,0.3487,0.3489,0,0,0,0,0,0,0,0,0.3248,0.3255,0.3324,0.3327,0.333,0.338,0.3361,0.3417,0.3404,0.3376,0.3404,0.3404,0.3443,0.3448,0.3461,0.3503,0.3506,0.3488,0.3489,0.3491,0.3492,0,0,0,0,0,0,0,0.3244,0.3253,0.3331,0.3325,0.3328,0.3335,0.3343,0.3372,0.341,0.3379,0.3381,0.3389,0.3444,0.3458,0.3463,0.3507,0.3488,0.349,0.3492,0.3493,0.3569,0.357,0,0,0,0,0,0,0.3237,0.3249,0.3329,0.3333,0.3288,0.3337,0.3346,0.3364,0.3409,0.3416,0.3389,0.339,0.3454,0.346,0.3466,0.3494,0.3491,0.3494,0.3495,0.3569,0.357,0.357,0,0,0,0,0,0,0.3234,0.3243,0.3326,0.3292,0.3303,0.334,0.3359,0.3365,0.338,0.3417,0.3424,0.3397,0.3454,0.3462,0.3491,0.3497,0.3495,0.3498,0.3569,0.3569,0.357,0.355,0,0,0,0,0,0,0.3231,0.3242,0.3252,0.3292,0.3305,0.3351,0.336,0.3367,0.3385,0.3387,0.3426,0.3432,0.3454,0.3487,0.3494,0.3501,0.35,0.3569,0.3569,0.357,0.355,0.355,0.3549,0,0,0,0,0,0.3227,0.3243,0.3252,0.3261,0.3317,0.3351,0.3358,0.3383,0.3385,0.3394,0.3418,0.3431,0.3495,0.3489,0.3498,0.3506,0.3568,0.3569,0.357,0.3551,0.355,0.3549,0,0,0,0,0,0,0.3203,0.3249,0.3259,0.3289,0.3316,0.3356,0.3368,0.3381,0.3408,0.3409,0.3438,0.3447,0.3473,0.3493,0.3486,0.3528,0.3533,0.3535,0.3515,0.3515,0.3514,0.3509,0.3502,0,0,0,0,0,0.3201,0.3225,0.3264,0.3287,0.33,0.3331,0.3347,0.3364,0.3393,0.3404,0.343,0.3458,0.3484,0.35,0.3526,0.3553,0.3562,0.3562,0.3562,0.3561,0.3563,0.3578,0.3578,0.3572,0.3572,0.3572,0,0,0.3197,0.3226,0.3239,0.3282,0.3305,0.3329,0.3341,0.3366,0.3384,0.3408,0.3437,0.3457,0.3489,0.3517,0.3531,0.3534,0.3566,0.3562,0.3561,0.3563,0.3578,0.3579,0.3579,0.3572,0.3572,0.3572,0,0,0.3203,0.3227,0.3248,0.327,0.3305,0.3326,0.333,0.3368,0.3382,0.3412,0.3431,0.3452,0.3497,0.3519,0.3536,0.3548,0.3561,0.3555,0.3552,0.3566,0.3567,0.3568,0.3572,0.3573,0.3557,0.3557,0.3557,0,0.3194,0.3232,0.3257,0.3281,0.3299,0.3322,0.3343,0.3363,0.3404,0.3416,0.3419,0.3474,0.3498,0.3531,0.3534,0.3547,0.3553,0.3551,0.3565,0.3566,0.3567,0.3571,0.3572,0.3556,0.3556,0.3556,0.3556,0,0.3219,0.3244,0.3257,0.3296,0.3315,0.3337,0.3366,0.3383,0.3397,0.3417,0.3447,0.3475,0.3507,0.3516,0.3531,0.3551,0.3552,0.3559,0.3564,0.3566,0.357,0.3572,0.3555,0.3555,0.3555,0.3556,0,0,0.3212,0.3264,0.3268,0.3286,0.3324,0.3344,0.3367,0.3398,0.3412,0.3438,0.3458,0.3494,0.3501,0.352,0.3537,0.355,0.3557,0.3556,0.3557,0.3555,0.358,0.3575,0.3576,0.3565,0.3566,0.3566,0.3578,0,0.3223,0.3266,0.3289,0.3321,0.3344,0.3366,0.3385,0.3411,0.343,0.3452,0.3473,0.3498,0.3506,0.3517,0.353,0.3553,0.3563,0.3553,0.3584,0.3584,0.3575,0.3579,0.3573,0.3582,0.358,0.358,0.358,0,0.3242,0.3268,0.3303,0.3338,0.3349,0.3366,0.3396,0.3417,0.3446,0.3459,0.348,0.3496,0.352,0.3523,0.3556,0.3549,0.3563,0.3576,0.3576,0.3581,0.3583,0.3583,0.3586,0.3587,0.3583,0.3583,0.3583,0,0.3233,0.3277,0.3304,0.3318,0.336,0.3371,0.3389,0.3418,0.3435,0.3461,0.3472,0.35,0.3515,0.3536,0.356,0.356,0.3591,0.3595,0.3602,0.3601,0.3608,0.3607,0.3614,0.3616,0.3616,0.3616,0.3616,0,0.3243,0.3263,0.33,0.3316,0.3339,0.3365,0.3387,0.3407,0.3432,0.3452,0.3472,0.349,0.352,0.3541,0.356,0.3584,0.3591,0.3602,0.3606,0.36,0.3599,0.361,0.361,0.3617,0.3617,0.3617,0.3617,0,0.3237,0.3263,0.3293,0.333,0.3339,0.3355,0.3386,0.3402,0.3422,0.3447,0.3454,0.3485,0.3511,0.3537,0.3572,0.3584,0.3609,0.3615,0.3599,0.3602,0.3607,0.3606,0.3621,0.3624,0.3624,0.3624,0.3624,0,0.3242,0.3258,0.3296,0.3311,0.3329,0.3352,0.3369,0.3395,0.3412,0.3446,0.3457,0.3485,0.3509,0.355,0.3575,0.3602,0.3609,0.3612,0.3613,0.3606,0.3609,0.3608,0.3609,0.3612,0.3612,0.3612,0.3611,0,0.3247,0.3259,0.3283,0.3312,0.3332,0.3355,0.3379,0.339,0.342,0.3438,0.3466,0.3484,0.3519,0.3547,0.3576,0.3594,0.3608,0.3611,0.3614,0.3608,0.3598,0.3603,0.3597,0.3611,0.3611,0.3611,0.3611,0.3611,0.3247,0.3262,0.3291,0.3317,0.3338,0.336,0.3377,0.3398,0.3422,0.3453,0.3466,0.3494,0.3521,0.3562,0.358,0.3601,0.3604,0.3609,0.361,0.3611,0.3609,0.3594,0.3607,0.3607,0.3607,0.3607,0.3607,0,0.3253,0.3273,0.3297,0.333,0.335,0.3361,0.3388,0.3404,0.3428,0.3452,0.3475,0.3506,0.3532,0.3559,0.3586,0.3598,0.3605,0.3605,0.3604,0.3608,0.3605,0.3599,0.3599,0.3599,0.3599,0.3598,0.3598,0.3598,0.3259,0.3285,0.33,0.3336,0.3355,0.3382,0.3397,0.3417,0.3436,0.347,0.3492,0.3509,0.3534,0.3564,0.3588,0.3595,0.3604,0.3602,0.3611,0.3608,0.3608,0.3609,0.3604,0.3604,0.3604,0.3612,0.3612,0.3612]},{"header":{"parameterUnit":"m.s-1","parameterCategory":1,"la1":30.2991,"la2":30.254,"lo1":-89.0895,"lo2":-89.0444,"dy":0.0017,"dx":0.0017,"nx":28,"ny":28,"refTime":"2025-12-24T03:00:00:Z","depth":0,"parameterNumber":3,"parameterNumberName":"V-component_of_WINDS"},"data":[0,0,0,0,0,0,0,0,0,0,0,0,0,0,0,0,0,0,0,0,0,0,0,0,0,0,0,0,0,0,0,0,0,0,0,0,0,0,0,0,0,0,0,0,0,0,0,0,0,0,0,0,0,0,0,0,0,0,1.4515,1.4514,0,1.4461,1.446,1.446,1.446,1.4461,1.4462,1.4462,1.4401,1.4399,1.4397,0,0,0,0,0,0,0,0,0,0,0,0,0,1.4612,1.4611,1.4515,1.4514,1.4513,1.4461,1.446,1.446,1.446,1.4461,1.4462,1.4463,1.4402,1.4399,1.4397,0,0,0,0,0,0,0,0,0,0,0,0,0,1.4565,1.461,1.4515,1.4507,1.4506,1.4461,1.446,1.4459,1.446,1.4461,1.4462,1.4463,1.4403,1.44,1.4396,1.4353,0,0,1.4386,1.4384,0,0,0,0,0,0,0,0,1.4568,1.4562,1.4509,1.4508,1.4507,1.4469,1.4473,1.4424,1.446,1.4477,1.4462,1.4464,1.4422,1.4417,1.4405,1.435,1.4348,1.4385,1.4383,1.4382,1.4381,0,0,0,0,0,0,0,1.4571,1.4564,1.4493,1.4508,1.4507,1.4505,1.45,1.4463,1.4444,1.4476,1.4476,1.447,1.4422,1.4408,1.4403,1.4347,1.4386,1.4382,1.438,1.4379,1.4254,1.4253,0,0,0,0,0,0,1.4577,1.4567,1.4495,1.4492,1.4541,1.4502,1.4496,1.4479,1.4445,1.4441,1.4469,1.447,1.4413,1.4407,1.4401,1.4348,1.4382,1.4379,1.4377,1.4255,1.4254,1.4252,0,0,0,0,0,0,1.4579,1.4571,1.4497,1.4529,1.452,1.45,1.4481,1.4478,1.4464,1.4439,1.4436,1.4459,1.4414,1.4406,1.4365,1.4346,1.4377,1.4374,1.4257,1.4255,1.4253,1.4241,0,0,0,0,0,0,1.4582,1.4571,1.4556,1.4529,1.4518,1.4464,1.448,1.4476,1.4459,1.446,1.4429,1.4425,1.4414,1.4371,1.4362,1.4342,1.4371,1.4258,1.4256,1.4253,1.4243,1.4239,1.4236,0,0,0,0,0,1.4585,1.4554,1.4555,1.4546,1.4499,1.4463,1.4456,1.4447,1.4457,1.4441,1.4425,1.4426,1.435,1.4366,1.4357,1.4335,1.4259,1.4256,1.4254,1.4245,1.424,1.4236,0,0,0,0,0,0,1.4577,1.455,1.4551,1.451,1.4489,1.4463,1.4442,1.4442,1.4416,1.4417,1.4405,1.4398,1.4357,1.4342,1.4361,1.4291,1.4306,1.4301,1.4302,1.4297,1.4294,1.4297,1.4368,0,0,0,0,0,1.457,1.4545,1.4523,1.4488,1.4478,1.4462,1.4446,1.4441,1.4417,1.4407,1.4389,1.4364,1.4335,1.4316,1.4287,1.4242,1.4234,1.4222,1.4218,1.4215,1.4211,1.4184,1.4178,1.4243,1.4243,1.4243,0,0,1.4556,1.4539,1.4523,1.4486,1.4469,1.4442,1.4454,1.4424,1.4403,1.4402,1.4363,1.4348,1.432,1.4277,1.4257,1.4263,1.4192,1.4212,1.421,1.4206,1.4181,1.4175,1.4169,1.4241,1.4241,1.4242,0,0,1.4516,1.4501,1.4471,1.4454,1.4429,1.4418,1.4411,1.4385,1.4376,1.4337,1.4336,1.431,1.426,1.424,1.4223,1.4176,1.4175,1.4167,1.4147,1.4121,1.4116,1.4112,1.4094,1.4088,1.4163,1.4163,1.4163,0,1.4501,1.4461,1.4455,1.4425,1.4408,1.4409,1.4377,1.436,1.4326,1.4314,1.4322,1.426,1.4241,1.4192,1.4181,1.4168,1.4158,1.417,1.4118,1.4113,1.4109,1.4091,1.4085,1.4162,1.4162,1.4162,1.4162,0,1.4443,1.4416,1.4394,1.4363,1.4344,1.4314,1.4301,1.4282,1.4279,1.4267,1.4227,1.4205,1.4172,1.416,1.4156,1.4111,1.4115,1.4121,1.4135,1.4102,1.4085,1.4079,1.4161,1.4161,1.4161,1.4162,0,0,1.4395,1.4362,1.4354,1.434,1.4313,1.429,1.4259,1.4229,1.4212,1.4189,1.4161,1.412,1.4125,1.4106,1.4099,1.4078,1.4041,1.4086,1.4085,1.4077,1.3988,1.3983,1.3975,1.4041,1.4039,1.4038,1.399,0,1.4351,1.4298,1.4291,1.4243,1.4217,1.4217,1.419,1.4169,1.4158,1.4132,1.4119,1.4089,1.4099,1.4087,1.4066,1.405,1.4022,1.4053,1.4013,1.4011,1.4018,1.3967,1.3961,1.3916,1.3983,1.3982,1.3982,0,1.4292,1.4269,1.4219,1.4195,1.4184,1.416,1.4131,1.4108,1.4084,1.4077,1.4057,1.4053,1.4019,1.4036,1.3988,1.4009,1.3993,1.3982,1.398,1.3974,1.3993,1.3958,1.3902,1.3894,1.3972,1.3972,1.3973,0,1.426,1.4216,1.4181,1.4169,1.4141,1.4123,1.4111,1.4088,1.407,1.4045,1.4033,1.4004,1.3987,1.3963,1.3951,1.3965,1.3904,1.392,1.3895,1.3895,1.388,1.3881,1.3819,1.3873,1.3873,1.3873,1.3873,0,1.421,1.4179,1.4166,1.4144,1.4108,1.4101,1.4066,1.4053,1.4033,1.4007,1.4006,1.3981,1.3968,1.394,1.3931,1.3892,1.3885,1.3876,1.3874,1.3876,1.3876,1.3863,1.3865,1.3871,1.3871,1.3872,1.3872,0,1.4167,1.4158,1.4118,1.4096,1.4089,1.4064,1.4044,1.4021,1.4011,1.3978,1.397,1.3952,1.392,1.3907,1.3867,1.386,1.3815,1.3816,1.3823,1.3822,1.3798,1.38,1.3723,1.3712,1.3775,1.3774,1.3774,0,1.4136,1.4112,1.4087,1.4071,1.4058,1.4031,1.4014,1.4005,1.3987,1.3958,1.3939,1.3907,1.3882,1.383,1.3812,1.3782,1.378,1.3756,1.3775,1.3778,1.3778,1.3779,1.3776,1.3751,1.3751,1.375,1.375,0,1.408,1.4076,1.4052,1.4026,1.4005,1.3984,1.3963,1.3949,1.3937,1.3916,1.3884,1.3865,1.3825,1.3793,1.3761,1.3746,1.3745,1.3744,1.3737,1.3737,1.3742,1.3737,1.3812,1.3745,1.3746,1.3746,1.3746,1.3747,1.404,1.4019,1.3999,1.3971,1.3955,1.3936,1.3914,1.3901,1.3875,1.3843,1.384,1.3805,1.3782,1.374,1.3723,1.3695,1.3701,1.369,1.3687,1.3684,1.3682,1.3749,1.3689,1.3689,1.369,1.369,1.369,0,1.3983,1.397,1.3945,1.3917,1.3895,1.3899,1.3876,1.3857,1.3828,1.3807,1.3782,1.3745,1.3714,1.3695,1.3664,1.3645,1.3643,1.3636,1.3637,1.3633,1.3679,1.3688,1.3638,1.3638,1.3638,1.3638,1.3638,1.3638,1.395,1.3914,1.3909,1.3864,1.3852,1.3819,1.3806,1.3787,1.377,1.373,1.3705,1.3694,1.3673,1.364,1.3612,1.3607,1.3594,1.3587,1.3581,1.3624,1.363,1.3635,1.3643,1.3584,1.3584,1.3537,1.3537,1.3537]}]]